When you browse on this site, cookies collect data to enhance your experience and personalize the content and advertising you see.
Visit our Privacy Policy to learn more. By continuing to use the site, you agree to this use of cookies and data.
  • In Latvia
  • List of Countries
  • For 7 days
  • Water Temperature
  • Weather Map
  • Weather Widgets
  • user-avatar
    Login

    Hourly Weather Al-Ahmadi

    Today, 17 January, Friday

    Time Temperature Precipitation Wind Pressure Humidity
    00:00 +15°C° 0 mm 2 mps 759 mmHg 50%
    01:00 +14°C° 0 mm 3 mps 758 mmHg 50%
    02:00 +13°C° 0 mm 3 mps 758 mmHg 51%
    03:00 +13°C° 0 mm 3 mps 758 mmHg 52%
    04:00 +13°C° 0 mm 3 mps 757 mmHg 53%
    05:00 +13°C° 0 mm 4 mps 757 mmHg 54%
    06:00 +13°C° 0 mm 4 mps 757 mmHg 54%
    07:00 +14°C° 0 mm 4 mps 757 mmHg 50%
    08:00 +14°C° 0 mm 5 mps 758 mmHg 46%
    09:00 +15°C° 0 mm 5 mps 758 mmHg 40%
    10:00 +17°C° 0 mm 5 mps 758 mmHg 35%
    11:00 +19°C° 0 mm 6 mps 757 mmHg 31%
    12:00 +20°C° 0 mm 6 mps 757 mmHg 26%
    13:00 +21°C° 0 mm 6 mps 756 mmHg 26%
    14:00 +21°C° 0 mm 7 mps 755 mmHg 25%
    15:00 +21°C° 0 mm 8 mps 755 mmHg 26%
    16:00 +20°C° 0 mm 8 mps 755 mmHg 31%
    17:00 +20°C° 0 mm 8 mps 755 mmHg 36%
    18:00 +18°C° 0 mm 8 mps 755 mmHg 41%
    19:00 +18°C° 0 mm 8 mps 754 mmHg 43%
    20:00 +17°C° 0 mm 9 mps 754 mmHg 46%
    21:00 +17°C° 0 mm 9 mps 754 mmHg 48%
    22:00 +17°C° 0 mm 9 mps 754 mmHg 47%
    23:00 +17°C° 0 mm 9 mps 753 mmHg 45%

    Tomorrow, 18 January, Saturday

    Time Temperature Precipitation Wind Pressure Humidity
    00:00 +17°C° 0 mm 9 mps 753 mmHg 44%
    01:00 +16°C° 0 mm 9 mps 753 mmHg 44%
    02:00 +16°C° 0 mm 10 mps 752 mmHg 45%
    03:00 +16°C° 0 mm 10 mps 752 mmHg 45%
    04:00 +16°C° 0 mm 10 mps 752 mmHg 44%
    05:00 +16°C° 0 mm 9 mps 752 mmHg 43%
    06:00 +16°C° 0 mm 9 mps 751 mmHg 42%
    07:00 +16°C° 0 mm 9 mps 752 mmHg 43%
    08:00 +16°C° 0 mm 10 mps 752 mmHg 43%
    09:00 +16°C° 0 mm 10 mps 752 mmHg 44%
    10:00 +17°C° 0 mm 10 mps 751 mmHg 40%
    11:00 +18°C° 0 mm 9 mps 751 mmHg 37%
    12:00 +21°C° 0 mm 9 mps 751 mmHg 33%
    13:00 +22°C° 0 mm 8 mps 751 mmHg 31%
    14:00 +23°C° 0 mm 7 mps 750 mmHg 29%
    15:00 +24°C° 0 mm 6 mps 750 mmHg 27%
    16:00 +23°C° 0 mm 5 mps 751 mmHg 33%
    17:00 +22°C° 0 mm 4 mps 751 mmHg 39%
    18:00 +20°C° 0 mm 4 mps 751 mmHg 45%
    19:00 +20°C° 0 mm 4 mps 752 mmHg 42%
    20:00 +19°C° 0 mm 5 mps 752 mmHg 39%
    21:00 +19°C° 0 mm 6 mps 752 mmHg 36%
    22:00 +17°C° 0 mm 6 mps 752 mmHg 37%
    23:00 +17°C° 0 mm 6 mps 752 mmHg 38%

    Day after tomorrow, 19 January, Sunday

    Time Temperature Precipitation Wind Pressure Humidity
    00:00 +16°C° 0 mm 5 mps 753 mmHg 40%
    01:00 +16°C° 0 mm 5 mps 753 mmHg 42%
    02:00 +15°C° 0 mm 5 mps 753 mmHg 44%
    03:00 +15°C° 0 mm 5 mps 753 mmHg 46%
    04:00 +14°C° 0 mm 5 mps 753 mmHg 47%
    05:00 +14°C° 0 mm 4 mps 753 mmHg 48%
    06:00 +14°C° 0 mm 4 mps 753 mmHg 50%
    07:00 +14°C° 0 mm 4 mps 754 mmHg 48%
    08:00 +15°C° 0 mm 4 mps 754 mmHg 46%
    09:00 +17°C° 0 mm 3 mps 755 mmHg 44%
    10:00 +18°C° 0 mm 3 mps 754 mmHg 41%
    11:00 +19°C° 0 mm 3 mps 754 mmHg 39%
    12:00 +20°C° 0 mm 3 mps 754 mmHg 36%
    13:00 +20°C° 0 mm 3 mps 754 mmHg 35%
    14:00 +20°C° 0 mm 3 mps 754 mmHg 34%
    15:00 +21°C° 0 mm 3 mps 753 mmHg 34%
    16:00 +20°C° 0 mm 2 mps 754 mmHg 35%
    17:00 +20°C° 0 mm 2 mps 754 mmHg 37%
    18:00 +19°C° 0 mm 2 mps 754 mmHg 39%
    19:00 +19°C° 0 mm 2 mps 755 mmHg 41%
    20:00 +18°C° 0 mm 2 mps 755 mmHg 43%
    21:00 +18°C° 0 mm 2 mps 756 mmHg 45%
    22:00 +17°C° 0 mm 2 mps 756 mmHg 48%
    23:00 +17°C° 0 mm 2 mps 756 mmHg 50%

    20 January, Monday

    Time Temperature Precipitation Wind Pressure Humidity
    00:00 +16°C° 0 mm 2 mps 756 mmHg 52%
    01:00 +16°C° 0 mm 2 mps 756 mmHg 54%
    02:00 +16°C° 0 mm 2 mps 756 mmHg 56%
    03:00 +15°C° 0 mm 2 mps 756 mmHg 58%
    04:00 +15°C° 0 mm 2 mps 756 mmHg 58%
    05:00 +15°C° 0 mm 2 mps 756 mmHg 58%
    06:00 +15°C° 0 mm 2 mps 757 mmHg 59%
    07:00 +16°C° 0 mm 2 mps 757 mmHg 56%
    08:00 +16°C° 0 mm 2 mps 757 mmHg 52%
    09:00 +17°C° 0 mm 2 mps 758 mmHg 49%
    10:00 +18°C° 0 mm 3 mps 758 mmHg 45%
    11:00 +19°C° 0 mm 3 mps 758 mmHg 41%
    12:00 +20°C° 0 mm 3 mps 758 mmHg 37%
    13:00 +21°C° 0 mm 3 mps 757 mmHg 35%
    14:00 +21°C° 0 mm 3 mps 757 mmHg 33%
    15:00 +21°C° 0 mm 3 mps 756 mmHg 31%
    16:00 +21°C° 0 mm 3 mps 756 mmHg 33%
    17:00 +20°C° 0 mm 3 mps 756 mmHg 35%
    18:00 +19°C° 0 mm 3 mps 757 mmHg 37%
    19:00 +19°C° 0 mm 4 mps 757 mmHg 38%
    20:00 +18°C° 0 mm 4 mps 757 mmHg 40%
    21:00 +18°C° 0 mm 4 mps 757 mmHg 41%
    22:00 +17°C° 0 mm 4 mps 757 mmHg 43%
    23:00 +17°C° 0 mm 4 mps 757 mmHg 46%

    21 January, Tuesday

    Time Temperature Precipitation Wind Pressure Humidity
    00:00 +15°C° 0 mm 4 mps 756 mmHg 48%
    01:00 +15°C° 0 mm 4 mps 756 mmHg 48%
    02:00 +14°C° 0 mm 5 mps 756 mmHg 49%
    03:00 +14°C° 0 mm 5 mps 756 mmHg 50%
    04:00 +14°C° 0 mm 4 mps 756 mmHg 50%
    05:00 +13°C° 0 mm 4 mps 756 mmHg 50%
    06:00 +13°C° 0 mm 3 mps 755 mmHg 50%
    07:00 +14°C° 0 mm 3 mps 756 mmHg 48%
    08:00 +15°C° 0 mm 2 mps 756 mmHg 45%
    09:00 +16°C° 0 mm 1 mps 756 mmHg 42%
    10:00 +18°C° 0 mm 1 mps 756 mmHg 39%
    11:00 +19°C° 0 mm 1 mps 755 mmHg 36%
    12:00 +17°C° 0 mm 0 mps 755 mmHg 33%
    13:00 +20°C° 0 mm 1 mps 755 mmHg 32%
    14:00 +20°C° 0 mm 1 mps 754 mmHg 30%
    15:00 +20°C° 0 mm 1 mps 754 mmHg 29%
    16:00 +19°C° 0 mm 2 mps 754 mmHg 36%
    17:00 +18°C° 0 mm 4 mps 754 mmHg 43%
    18:00 +16°C° 0 mm 5 mps 753 mmHg 50%
    19:00 +16°C° 0 mm 5 mps 753 mmHg 54%
    20:00 +15°C° 0 mm 5 mps 753 mmHg 58%
    21:00 +15°C° 0 mm 5 mps 753 mmHg 63%
    22:00 +15°C° 0 mm 5 mps 753 mmHg 62%
    23:00 +15°C° 0 mm 5 mps 752 mmHg 61%

    22 January, Wednesday

    Time Temperature Precipitation Wind Pressure Humidity
    00:00 +15°C° 0 mm 6 mps 752 mmHg 61%
    01:00 +15°C° 0.2 mm 6 mps 752 mmHg 62%
    02:00 +15°C° 0.2 mm 6 mps 751 mmHg 64%
    03:00 +15°C° 0.2 mm 6 mps 751 mmHg 66%
    04:00 +15°C° 0.1 mm 7 mps 751 mmHg 65%
    05:00 +15°C° 0.1 mm 7 mps 751 mmHg 65%
    06:00 +15°C° 0.1 mm 8 mps 751 mmHg 65%
    07:00 +16°C° 0 mm 9 mps 751 mmHg 60%
    08:00 +17°C° 0 mm 10 mps 751 mmHg 56%
    09:00 +17°C° 0 mm 11 mps 751 mmHg 52%
    10:00 +18°C° 0 mm 11 mps 751 mmHg 46%
    11:00 +19°C° 0 mm 10 mps 751 mmHg 40%
    12:00 +21°C° 0 mm 10 mps 751 mmHg 34%
    13:00 +19°C° 0 mm 10 mps 751 mmHg 35%
    14:00 +18°C° 0 mm 9 mps 750 mmHg 35%
    15:00 +17°C° 0 mm 9 mps 750 mmHg 36%
    16:00 +17°C° 0 mm 8 mps 751 mmHg 33%
    17:00 +16°C° 0 mm 7 mps 752 mmHg 30%
    18:00 +15°C° 0 mm 6 mps 752 mmHg 27%
    19:00 +15°C° 0 mm 6 mps 753 mmHg 29%
    20:00 +14°C° 0 mm 5 mps 753 mmHg 30%
    21:00 +14°C° 0 mm 5 mps 754 mmHg 32%
    22:00 +13°C° 0 mm 5 mps 754 mmHg 34%
    23:00 +13°C° 0 mm 4 mps 754 mmHg 37%
    Show more